Bookmark and Share
Track history (hours):
 

Burgtor

Last reported at 2014-Apr-25 05:32 UTC. Time now 2014-Apr-25 06:12 UTC.
Position N 50°29' W 001°47'.

Length 87 m; draft 5.1 m.

Type: Cargo ship. MMSI: 304665000.

NotesDate/timePositionNaut miles runAvg speedWind from/ knotsBaromVisibWave heightAir tempDewpointWater temp
2014-Apr-25 05:32N 50°29' W 001°47'  
2014-Apr-19 19:33N 50°16' W 001°20'1111.4
2014-Apr-19 18:33N 50°20' W 001°03'1312.6
2014-Apr-19 17:33N 50°23' W 000°44'4511.2
2014-Apr-19 13:33N 50°36' E 000°23'9 8.8
2014-Apr-19 12:33N 50°40' E 000°36'9 8.7
2014-Apr-19 11:33N 50°45' E 000°47'3311.1
2014-Apr-19 08:33N 51°05' E 001°29'1211.6
2014-Apr-19 07:33N 51°13' E 001°43'1010.1
2014-Apr-19 06:34N 51°22' E 001°51'8 8.3
2014-Apr-19 05:32N 51°29' E 001°58'9 8.0
2014-Apr-19 04:27N 51°36' E 002°07'7 7.8
2014-Apr-19 03:33N 51°41' E 002°15'141 9.2
2014-Apr-18 12:09N 53°29' E 004°44'5 8.9
2014-Apr-18 11:33N 53°31' E 004°52'8 8.0
2014-Apr-18 10:33N 53°34' E 005°04'7 7.1
2014-Apr-18 09:33N 53°36' E 005°16'6 6.3
2014-Apr-18 08:33N 53°38' E 005°26'6 6.2
2014-Apr-18 07:33N 53°40' E 005°36'6 6.4
2014-Apr-18 06:33N 53°42' E 005°46'7 6.9
2014-Apr-18 05:33N 53°44' E 005°57'45 7.4
2014-Apr-17 23:33N 53°56' E 007°10'7 6.6
2014-Apr-17 22:33N 53°58' E 007°20'6 6.3
2014-Apr-17 21:33N 53°60' E 007°31'7 6.6
2014-Apr-17 20:33N 54°01' E 007°42'7 7.3
2014-Apr-17 19:33N 54°01' E 007°54'8 7.9
2014-Apr-17 18:33N 54°01' E 008°08'10 9.7
2014-Apr-17 17:33N 53°60' E 008°24'1111.4
2014-Apr-17 16:33N 53°55' E 008°41'9 9.5
2014-Apr-17 15:33N 53°51' E 008°56'8 7.9
2014-Apr-17 14:33N 53°54' E 009°09'4 4.0
2014-Apr-17 13:33N 53°56' E 009°13'8 8.2
2014-Apr-17 12:33N 54°04' E 009°19'8 7.5
2014-Apr-17 11:30N 54°10' E 009°27'64 7.2
2014-Apr-17 02:33N 54°36' E 011°07'1010.1
2014-Apr-17 01:33N 54°33' E 011°23'1110.9
2014-Apr-17 00:33N 54°28' E 011°41'1111.0
2014-Apr-16 23:33N 54°27' E 011°59'9 9.3
2014-Apr-16 22:33N 54°32' E 012°12'1110.0
2014-Apr-16 21:30N 54°40' E 012°24'1010.6
2014-Apr-16 20:33N 54°46' E 012°39'1110.6
2014-Apr-16 19:33N 54°47' E 012°57'1110.8
2014-Apr-16 18:33N 54°46' E 013°16'10 9.5
2014-Apr-16 17:33N 54°46' E 013°32'9 8.8
2014-Apr-16 16:32N 54°44' E 013°47'9 9.1
2014-Apr-16 15:33N 54°42' E 014°02'10 9.5
2014-Apr-16 14:33N 54°39' E 014°18'130 9.3
2014-Apr-16 00:33N 54°56' E 018°01'9 8.6
2014-Apr-15 23:33N 54°56' E 018°16'8 8.5
2014-Apr-15 22:33N 54°56' E 018°30'7 7.4
2014-Apr-15 21:33N 54°53' E 018°43'7 7.2
2014-Apr-15 20:33N 54°48' E 018°52'6 6.4
2014-Apr-15 19:33N 54°43' E 018°58'8 7.6
2014-Apr-15 18:33N 54°36' E 018°54'8 7.9
2014-Apr-15 17:33N 54°32' E 018°42'5 4.6
2014-Apr-15 16:34N 54°32' E 018°34'1 1.1
2014-Apr-15 15:32N 54°32' E 018°32'0 0.0
2014-Apr-15 14:32N 54°32' E 018°32'0 0.0
2014-Apr-15 12:33N 54°32' E 018°32'0 0.0
2014-Apr-15 11:33N 54°32' E 018°32'0 0.0
2014-Apr-15 10:33N 54°32' E 018°32'0 0.0
2014-Apr-15 09:32N 54°32' E 018°32'0 0.0
2014-Apr-15 08:32N 54°32' E 018°32'0 0.0
2014-Apr-15 07:32N 54°32' E 018°32'0 0.0
2014-Apr-15 06:32N 54°32' E 018°32'  

Dump ship's entire track history

sailing weather and tide predictions

Burgtor — V2OR7 — position and weather